PROMETHEUS 2-1

Last updated on Wed Oct 29 2025 00:03:53 GMT+0000 (Coordinated Universal Time)

1 41854U 16067G 25301.62063204 .00229790 00000+0 16046-2 0 9993 2 41854 98.0461 173.2869 0007018 93.4912 266.7153 15.73593860492352
UTC large
Height (km)
Speed (km/s)
/
Latitude / Longitude
Inclination (degrees)
Orbital Period (minutes)
Azimuth
Elevation
Range (km)
Doppler Factor

Next 0 passes for location: London (51.5072 / 0.1276)

Sorry there are no passes over London.